FW6098 Weather Reports


time (UTC)temp
F
wind
direction
speed
knots
gust
knots
rain 1hr
in
rain 24hr
in
rain mn
in
humidity
%
barometer
mb
20260506191032 83 103 1.7 6.1 0.00 0.00 0.00 69 1007.3
20260506190530 82 142 0.9 6.1 0.00 0.00 0.00 70 1007.4
20260506190028 82 142 1.7 6.1 0.00 0.00 0.00 72 1007.5
20260506185527 81 144 1.7 8.7 0.00 0.00 0.00 72 1007.5
20260506185026 80 144 4.3 8.7 0.00 0.00 0.00 73 1007.7
20260506184531 80 125 3.5 9.6 0.00 0.00 0.00 73 1007.7
20260506184027 80 360 4.3 9.6 0.00 0.00 0.00 73 1007.8
20260506183527 81 119 4.3 8.7 0.00 0.00 0.00 73 1007.8
20260506183025 80 139 4.3 8.7 0.00 0.00 0.00 74 1007.9
20260506182523 80 360 5.2 8.7 0.00 0.00 0.00 74 1007.9
20260506182023 79 360 4.3 9.6 0.00 0.00 0.00 75 1008.1
20260506181536 79 360 5.2 9.6 0.00 0.00 0.00 75 1008.2
20260506181023 79 360 2.6 7.8 0.00 0.00 0.00 75 1008.2
20260506180523 79 360 2.6 9.6 0.00 0.00 0.00 75 1008.3
20260506180025 79 360 3.5 9.6 0.00 0.00 0.00 74 1008.4
20260506175524 80 360 1.7 7.0 0.00 0.00 0.00 74 1008.3
20260506175021 79 360 2.6 7.8 0.00 0.00 0.00 74 1008.3
20260506174521 79 360 5.2 7.8 0.00 0.00 0.00 74 1008.3
20260506174023 79 360 4.3 8.7 0.00 0.00 0.00 75 1008.2
20260506173522 79 360 4.3 8.7 0.00 0.00 0.00 75 1008.3
20260506173026 79 360 5.2 8.7 0.00 0.00 0.00 75 1008.4
20260506172518 79 360 4.3 7.8 0.00 0.00 0.00 75 1008.4
20260506172019 79 40 3.5 8.7 0.00 0.00 0.00 76 1008.5
20260506171520 79 70 5.2 8.7 0.00 0.00 0.00 76 1008.4
20260506171020 79 57 6.1 8.7 0.00 0.00 0.00 75 1008.4
20260506170518 79 360 4.3 7.8 0.00 0.00 0.00 76 1008.4
20260506170017 78 360 2.6 7.0 0.00 0.00 0.00 76 1008.5
20260506165517 78 360 2.6 7.8 0.00 0.00 0.00 77 1008.5
20260506165014 78 360 4.3 7.8 0.00 0.00 0.00 78 1008.6
20260506164513 77 360 4.3 7.8 0.00 0.00 0.00 79 1008.5
20260506164015 77 360 3.5 7.8 0.00 0.00 0.00 79 1008.5
20260506163510 77 360 3.5 7.8 0.00 0.00 0.00 79 1008.4
20260506163016 77 360 3.5 7.0 0.00 0.00 0.00 79 1008.4
20260506162509 77 360 1.7 7.0 0.00 0.00 0.00 80 1008.5
20260506162010 77 360 3.5 7.0 0.00 0.00 0.00 81 1008.4
20260506161508 77 360 4.3 7.0 0.00 0.00 0.00 82 1008.3
20260506161009 76 360 2.6 5.2 0.00 0.00 0.00 82 1008.4
20260506160505 76 360 2.6 5.2 0.00 0.00 0.00 83 1008.2
20260506160004 76 360 0.9 4.3 0.00 0.00 0.00 83 1008.3
20260506155501 76 360 2.6 5.2 0.00 0.00 0.00 83 1008.2
20260506155104 76 360 2.6 5.2 0.00 0.00 0.00 83 1008.1
20260506154613 75 360 1.7 5.2 0.00 0.00 0.00 83 1008.2
20260506154057 75 360 3.5 7.0 0.00 0.00 0.00 83 1008.0
20260506153556 75 360 2.6 7.0 0.00 0.00 0.00 83 1008.0
20260506153056 75 360 1.7 5.2 0.00 0.00 0.00 84 1008.0
20260506152554 75 360 2.6 5.2 0.00 0.00 0.00 84 1007.9
20260506152057 75 360 2.6 4.3 0.00 0.00 0.00 84 1007.9
20260506151552 75 360 2.6 5.2 0.00 0.00 0.00 84 1007.7
20260506151054 75 360 1.7 3.5 0.00 0.00 0.00 83 1007.6
20260506150551 75 360 1.7 4.3 0.00 0.00 0.00 83 1007.5
20260506150050 75 360 1.7 3.5 0.00 0.00 0.00 83 1007.6
20260506145550 75 360 1.7 2.6 0.00 0.00 0.00 84 1007.6
20260506145049 75 360 0.9 1.7 0.00 0.00 0.00 84 1007.7
20260506144554 75 360 0.0 1.7 0.00 0.00 0.00 84 1007.7
20260506144050 75 360 0.0 2.6 0.00 0.00 0.00 84 1007.5
20260506143548 75 360 0.9 2.6 0.00 0.00 0.00 84 1007.5
20260506143048 75 360 0.9 2.6 0.00 0.00 0.00 84 1007.3
20260506142546 75 360 1.7 4.3 0.00 0.00 0.00 84 1007.2
20260506142045 75 360 0.9 4.3 0.00 0.00 0.00 84 1007.0
20260506141545 75 360 0.9 5.2 0.00 0.00 0.00 84 1007.1
20260506141046 75 360 2.6 5.2 0.00 0.00 0.00 84 1007.0
20260506140547 75 360 1.7 5.2 0.00 0.00 0.00 84 1006.9
20260506140042 75 360 1.7 7.0 0.00 0.00 0.00 84 1006.8
20260506135541 75 360 2.6 5.2 0.00 0.00 0.00 84 1006.8
20260506135040 75 360 0.9 4.3 0.00 0.00 0.00 85 1006.6
20260506134540 75 360 1.7 7.0 0.00 0.00 0.00 85 1006.4
20260506134040 75 360 1.7 7.8 0.00 0.00 0.00 85 1006.3
20260506133539 75 360 2.6 7.8 0.00 0.00 0.00 85 1006.4
20260506133052 74 360 1.7 8.7 0.00 0.00 0.00 85 1006.2
20260506132538 74 360 4.3 8.7 0.00 0.00 0.00 85 1006.4
20260506132040 74 360 2.6 8.7 0.00 0.00 0.00 85 1006.3
20260506131538 74 360 2.6 10.4 0.00 0.00 0.00 85 1006.2
20260506131037 74 360 3.5 10.4 0.00 0.00 0.00 85 1006.0
20260506130537 74 360 2.6 9.6 0.00 0.00 0.00 85 1006.1
20260506130039 74 360 3.5 10.4 0.00 0.00 0.00 85 1006.0
20260506125537 74 360 7.8 10.4 0.00 0.00 0.00 85 1006.1
20260506125034 74 360 5.2 10.4 0.00 0.00 0.00 85 1006.0
20260506124534 74 360 0.9 8.7 0.00 0.00 0.00 85 1006.0
20260506124033 74 360 3.5 8.7 0.00 0.00 0.00 85 1006.1
20260506123532 74 360 3.5 8.7 0.00 0.00 0.00 85 1006.1
20260506123032 74 360 3.5 7.8 0.00 0.00 0.00 85 1006.0
20260506122532 74 360 2.6 7.8 0.00 0.00 0.00 85 1006.1
20260506122031 74 360 3.5 7.8 0.00 0.00 0.00 85 1006.1
20260506121529 74 360 2.6 4.3 0.00 0.00 0.00 85 1006.1
20260506121031 74 360 1.7 5.2 0.00 0.00 0.00 85 1006.0
20260506120529 74 360 2.6 7.0 0.00 0.00 0.00 85 1005.9
20260506120029 74 360 3.5 7.0 0.00 0.00 0.00 85 1006.0
20260506115529 74 360 1.7 7.8 0.00 0.00 0.00 85 1006.0
20260506115028 74 360 4.3 7.8 0.00 0.00 0.00 85 1005.9
20260506114529 74 360 2.6 7.8 0.00 0.00 0.00 85 1005.9
20260506114027 74 360 1.7 5.2 0.00 0.00 0.00 85 1005.9
20260506113530 74 360 2.6 4.3 0.00 0.00 0.00 85 1005.9
20260506113028 74 360 1.7 4.3 0.00 0.00 0.00 85 1005.9
20260506112527 74 360 1.7 7.8 0.00 0.00 0.00 85 1005.9
20260506112027 74 360 2.6 7.8 0.00 0.00 0.00 85 1005.9
20260506111527 74 360 1.7 7.8 0.00 0.00 0.00 85 1005.8
20260506111026 74 360 2.6 7.8 0.00 0.00 0.00 84 1006.0
20260506110526 74 360 3.5 7.8 0.00 0.00 0.00 84 1005.9
20260506110026 74 360 3.5 7.0 0.00 0.00 0.00 84 1005.9
20260506105526 75 360 1.7 5.2 0.00 0.00 0.00 84 1005.9
20260506105026 75 360 2.6 7.8 0.00 0.00 0.00 84 1005.8
20260506104551 75 360 2.6 8.7 0.00 0.00 0.00 84 1005.8
20260506104029 75 360 3.5 9.6 0.00 0.00 0.00 84 1005.7
20260506103525 75 360 5.2 9.6 0.00 0.00 0.00 84 1005.5
20260506103024 75 360 1.7 8.7 0.00 0.00 0.00 84 1005.7
20260506102525 75 360 2.6 8.7 0.00 0.00 0.00 84 1005.8
20260506102025 75 360 2.6 7.8 0.00 0.00 0.00 84 1005.7
20260506101524 75 360 2.6 7.8 0.00 0.00 0.00 83 1005.7
20260506101026 75 360 1.7 7.8 0.00 0.00 0.00 83 1005.7
20260506100524 75 360 1.7 7.8 0.00 0.00 0.00 83 1005.7
20260506100023 75 360 0.9 13.0 0.00 0.00 0.00 83 1005.7
20260506095523 75 360 3.5 13.0 0.00 0.00 0.00 83 1005.7
20260506095022 75 360 4.3 13.0 0.00 0.00 0.00 83 1005.7
20260506094529 75 360 3.5 11.3 0.00 0.00 0.00 83 1005.7
20260506094021 75 360 5.2 8.7 0.00 0.00 0.00 83 1005.6
20260506093520 75 153 4.3 8.7 0.00 0.00 0.00 83 1005.6
20260506093020 75 194 1.7 8.7 0.00 0.00 0.00 83 1005.6
20260506092520 75 148 3.5 8.7 0.00 0.00 0.00 83 1005.6
20260506092020 75 167 1.7 8.7 0.00 0.00 0.00 83 1005.5
20260506091521 75 173 3.5 12.2 0.00 0.00 0.00 83 1005.6
20260506091021 75 252 3.5 12.2 0.00 0.00 0.00 83 1005.6
20260506090522 75 192 4.3 12.2 0.00 0.00 0.00 83 1005.5
20260506090018 75 156 7.0 12.2 0.00 0.00 0.00 83 1005.6
20260506085518 75 180 2.6 8.7 0.00 0.00 0.00 83 1005.7
20260506085018 75 157 3.5 13.9 0.00 0.00 0.00 83 1005.7
20260506084517 75 166 7.0 14.8 0.00 0.00 0.00 83 1005.7
20260506084019 75 167 4.3 12.2 0.00 0.00 0.00 83 1005.8
20260506083516 75 164 2.6 8.7 0.00 0.00 0.00 83 1005.9
20260506083033 75 171 4.3 9.6 0.00 0.00 0.00 83 1005.9
20260506082515 75 140 2.6 13.9 0.00 0.00 0.00 83 1005.9
20260506082014 75 156 6.1 13.0 0.00 0.00 0.00 83 1005.9
20260506081514 75 157 4.3 12.2 0.00 0.00 0.00 83 1006.0
20260506081015 75 165 3.5 12.2 0.00 0.00 0.00 83 1005.9
20260506080512 75 159 4.3 12.2 0.00 0.00 0.00 83 1005.9
20260506073512 75 147 4.3 14.8 0.00 0.00 0.00 83 1006.0
20260506073009 75 152 6.1 16.5 0.00 0.00 0.00 83 1006.1
20260506072508 75 166 9.6 17.4 0.00 0.00 0.00 83 1006.1
20260506072007 75 184 7.8 17.4 0.00 0.00 0.00 83 1006.1
20260506071507 75 154 6.1 15.6 0.00 0.00 0.00 83 1006.2
20260506071006 75 260 7.8 15.6 0.00 0.00 0.00 83 1006.3
20260506070507 75 171 5.2 14.8 0.00 0.00 0.00 83 1006.3
20260506062503 75 153 5.2 19.1 0.00 0.00 0.00 83 1006.4
20260506062101 75 144 7.0 16.5 0.00 0.00 0.00 83 1006.3
20260506061600 75 161 5.2 13.9 0.00 0.00 0.00 83 1006.2
20260506061501 75 140 4.3 13.9 0.00 0.00 0.00 83 1006.2
20260506061100 75 128 8.7 13.9 0.00 0.00 0.00 83 1006.2
20260506060604 75 190 7.0 14.8 0.00 0.00 0.00 83 1006.3
20260506051052 76 360 6.1 15.6 0.00 0.00 0.00 82 1006.3
20260506050551 76 360 2.6 15.6 0.00 0.00 0.00 82 1006.2
20260506045049 76 360 7.0 13.0 0.00 0.00 0.00 82 1006.2
20260506044603 76 360 5.2 14.8 0.00 0.00 0.00 81 1006.1
20260506044048 76 360 6.1 14.8 0.00 0.00 0.00 81 1006.1
20260506043547 76 360 7.0 16.5 0.00 0.00 0.00 81 1006.1
20260506043054 77 360 7.8 16.5 0.00 0.00 0.00 80 1006.2
20260506042548 77 360 2.6 11.3 0.00 0.00 0.00 80 1006.1
20260506042047 77 360 4.3 13.9 0.00 0.00 0.00 80 1006.0
20260506041550 77 360 4.3 13.9 0.00 0.00 0.00 80 1005.9
20260506041046 77 360 5.2 12.2 0.00 0.00 0.00 80 1005.9
20260506040546 77 360 7.8 12.2 0.00 0.00 0.00 80 1005.8
20260506040147 77 360 4.3 12.2 0.00 0.00 0.00 80 1005.7
20260506035546 77 360 3.5 17.4 0.00 0.00 0.00 80 1005.7
20260506035045 77 360 9.6 17.4 0.00 0.00 0.00 79 1005.8
20260506034547 78 360 6.1 13.0 0.00 0.00 0.00 79 1005.7
20260506034045 78 360 7.0 14.8 0.00 0.00 0.00 79 1005.5
20260506033545 78 360 6.1 14.8 0.00 0.00 0.00 79 1005.4
20260506033045 78 360 8.7 13.9 0.00 0.00 0.00 79 1005.4
20260506032546 78 360 5.2 15.6 0.00 0.00 0.00 78 1005.3
20260506032045 78 360 7.0 15.6 0.00 0.00 0.00 78 1005.3
20260506031549 79 360 8.7 15.6 0.00 0.00 0.00 78 1005.4
20260506031048 79 360 6.1 15.6 0.00 0.00 0.00 78 1005.3
20260506030544 79 136 7.8 15.6 0.00 0.00 0.00 78 1005.2
20260506030044 79 130 7.8 15.6 0.00 0.00 0.00 77 1005.2
20260506025545 79 140 7.8 14.8 0.00 0.00 0.00 77 1005.1
20260506025043 80 159 6.1 13.0 0.00 0.00 0.00 76 1005.0
20260506024546 80 146 4.3 13.9 0.00 0.00 0.00 76 1004.8
20260506024045 80 163 6.1 14.8 0.00 0.00 0.00 76 1004.8
20260506023544 80 124 4.3 14.8 0.00 0.00 0.00 75 1004.7
20260506023046 81 140 8.7 14.8 0.00 0.00 0.00 75 1004.7
20260506022544 81 360 4.3 12.2 0.00 0.00 0.00 74 1004.6
20260506022043 81 142 7.8 13.9 0.00 0.00 0.00 74 1004.5
20260506021553 81 133 7.8 14.8 0.00 0.00 0.00 73 1004.5
20260506021043 81 159 7.8 14.8 0.00 0.00 0.00 73 1004.5
20260506020543 82 137 5.2 13.0 0.00 0.00 0.00 72 1004.4
20260506020042 82 136 7.8 13.0 0.00 0.00 0.00 72 1004.3
20260506015543 82 148 5.2 14.8 0.00 0.00 0.00 71 1004.1
20260506015043 82 133 7.8 16.5 0.00 0.00 0.00 71 1004.1
20260506014543 83 137 9.6 16.5 0.00 0.00 0.00 70 1004.0
20260506014046 83 156 5.2 13.9 0.00 0.00 0.00 69 1003.9
20260506013541 83 84 5.2 13.9 0.00 0.00 0.00 69 1003.9
20260506013045 83 136 7.8 12.2 0.00 0.00 0.00 69 1003.8
20260506012542 83 112 4.3 10.4 0.00 0.00 0.00 69 1003.7
20260506012042 83 99 7.0 10.4 0.00 0.00 0.00 68 1003.8
20260506011546 83 121 4.3 9.6 0.00 0.00 0.00 68 1003.6
20260506011045 84 74 5.2 10.4 0.00 0.00 0.00 68 1003.5
20260506010541 84 105 7.0 11.3 0.00 0.00 0.00 68 1003.4
20260506010047 84 100 7.0 11.3 0.00 0.00 0.00 67 1003.4
20260506005540 84 136 3.5 10.4 0.00 0.00 0.00 67 1003.4
20260506005040 84 115 4.3 10.4 0.00 0.00 0.00 66 1003.3
20260506004540 85 108 7.0 11.3 0.00 0.00 0.00 66 1003.2
20260506004040 85 103 5.2 11.3 0.00 0.00 0.00 65 1003.3
20260506003540 85 138 3.5 8.7 0.00 0.00 0.00 65 1003.2
20260506003040 85 135 5.2 8.7 0.00 0.00 0.00 65 1003.3
20260506002539 85 136 3.5 9.6 0.00 0.00 0.00 65 1003.3
20260506002040 85 116 2.6 9.6 0.00 0.00 0.00 64 1003.2
20260506001539 86 92 4.3 7.8 0.00 0.00 0.00 64 1003.2
20260506001040 86 96 2.6 7.8 0.00 0.00 0.00 64 1003.2
20260506000540 85 96 3.5 7.8 0.00 0.00 0.00 64 1003.1
20260506000039 85 113 3.5 7.8 0.00 0.00 0.00 64 1003.1
20260505235538 85 132 2.6 7.8 0.00 0.00 0.00 64 1003.1
20260505235039 86 134 2.6 9.6 0.00 0.00 0.00 64 1003.1
20260505234602 86 135 4.3 9.6 0.00 0.00 0.00 63 1003.1
20260505234038 86 192 3.5 8.7 0.00 0.00 0.00 62 1003.0
20260505233538 86 161 4.3 8.7 0.00 0.00 0.00 63 1003.0
20260505233039 86 132 5.2 11.3 0.00 0.00 0.00 63 1002.9
20260505232540 86 143 7.8 11.3 0.00 0.00 0.00 62 1003.1
20260505232037 87 150 4.3 12.2 0.00 0.00 0.00 62 1003.0
20260505231538 87 182 1.7 7.8 0.00 0.00 0.00 62 1002.9
20260505231040 87 196 2.6 8.7 0.00 0.00 0.00 60 1002.9
20260505230536 88 165 2.6 8.7 0.00 0.00 0.00 60 1003.0
20260505230041 88 163 1.7 6.1 0.00 0.00 0.00 60 1003.0
20260505225539 88 170 2.6 7.0 0.00 0.00 0.00 60 1003.1
20260505225036 88 194 4.3 11.3 0.00 0.00 0.00 60 1002.9
20260505224536 88 186 5.2 10.4 0.00 0.00 0.00 59 1002.9
20260505224035 88 217 3.5 7.8 0.00 0.00 0.00 59 1002.9
20260505223534 88 255 3.5 8.7 0.00 0.00 0.00 60 1003.0
20260505223034 87 163 2.6 9.6 0.00 0.00 0.00 60 1003.1
20260505222533 87 215 5.2 9.6 0.00 0.00 0.00 60 1003.1
20260505222033 87 180 4.3 8.7 0.00 0.00 0.00 59 1003.1
20260505221533 87 171 4.3 12.2 0.00 0.00 0.00 60 1003.2
20260505221031 88 213 2.6 9.6 0.00 0.00 0.00 60 1003.2
20260505220530 87 178 2.6 9.6 0.00 0.00 0.00 61 1003.4
20260505220029 87 202 2.6 9.6 0.00 0.00 0.00 61 1003.4
20260505215529 87 165 3.5 9.6 0.00 0.00 0.00 61 1003.4
20260505215027 86 188 4.3 9.6 0.00 0.00 0.00 62 1003.5
20260505214534 86 163 2.6 9.6 0.00 0.00 0.00 62 1003.6
20260505214030 85 173 4.3 10.4 0.00 0.00 0.00 63 1003.6
20260505213525 86 160 7.0 10.4 0.00 0.00 0.00 61 1003.8
20260505213026 86 188 2.6 8.7 0.00 0.00 0.00 61 1003.7
20260505212524 86 217 5.2 8.7 0.00 0.00 0.00 62 1003.9
20260505212024 85 197 4.3 10.4 0.00 0.00 0.00 63 1003.9
20260505211535 85 196 8.7 13.9 0.00 0.00 0.00 62 1004.0
20260505211023 85 221 5.2 10.4 0.00 0.00 0.00 63 1004.1
20260505210523 84 174 3.5 11.3 0.00 0.00 0.00 63 1004.1
20260505210020 84 211 6.1 12.2 0.00 0.00 0.00 64 1004.3
20260505205519 84 182 5.2 9.6 0.00 0.00 0.00 64 1004.4
20260505205020 85 179 3.5 8.7 0.00 0.00 0.00 63 1004.4
20260505204518 85 210 2.6 9.6 0.00 0.00 0.00 64 1004.5
20260505204017 84 180 2.6 12.2 0.00 0.00 0.00 64 1004.6
20260505203517 84 169 5.2 12.2 0.00 0.00 0.00 63 1004.7
20260505203016 85 161 5.2 8.7 0.00 0.00 0.00 63 1004.8
20260505202515 85 209 3.5 10.4 0.00 0.00 0.00 63 1004.9
20260505202014 84 198 6.1 12.2 0.00 0.00 0.00 63 1005.0
20260505201512 84 242 5.2 12.2 0.00 0.00 0.00 64 1005.0
20260505201015 84 194 5.2 9.6 0.00 0.00 0.00 64 1005.0
20260505200510 84 207 5.2 8.7 0.00 0.00 0.00 65 1005.1
20260505200010 83 168 4.3 12.2 0.00 0.00 0.00 66 1005.2
20260505195508 83 207 3.5 9.6 0.00 0.00 0.00 66 1005.1
20260505195009 83 208 2.6 9.6 0.00 0.00 0.00 65 1005.4
20260505194509 83 202 4.3 9.6 0.00 0.00 0.00 66 1005.4
20260505194010 83 180 5.2 9.6 0.00 0.00 0.00 66 1005.3
20260505193507 83 173 2.6 12.2 0.00 0.00 0.00 67 1005.4
20260505193006 83 159 5.2 12.2 0.00 0.00 0.00 67 1005.5
20260505192504 82 162 0.9 9.6 0.00 0.00 0.00 68 1005.6
20260505192003 82 180 2.6 9.6 0.00 0.00 0.00 69 1005.7
20260505191501 81 167 2.6 9.6 0.00 0.00 0.00 70 1005.8